Location: Augustenthal
(51.7167°N, 10.2833°E)
Time: 07:30:17
(UTC+00:00)

NOSS 3-4 (C) - Pass Details

Date: 18 May 2021
Orbit: 873 x 1339 km, 63.4° (Epoch: 06 May)

Event Time Altitude Azimuth Distance (km) Brightness Sun altitude
Rises 19:37:58 0° 314° (NW) 3,791 9.6 -4.3°
Reaches altitude 10° 19:40:31 10° 310° (NW) 2,899 8.0 -4.6°
Maximum altitude 19:47:16 57° 234° (SW) 1,340 4.4 -5.4°
Drops below altitude 10° 19:54:46 10° 159° (SSE) 3,214 5.6 -6.2°
Enters shadow 19:56:25 - 157° (SSE) 3,777 6.0 -6.4°
